sat.trackr.live / text

‹ back to catalog

STARLINK-1304

NORAD 45376 · 2020-019S

PAYLOAD ACTIVE UNKNOWN

§ Identity

Operator
Country
US
Launch date
2020-03-18
Launch site
AFETR
Launch vehicle
Mass (kg)
RCS (m²)

Purposes: comms

External: N2YO · Heavens-Above · Gunter

§ Orbital elements

Epoch: 2026-09-12T21:32:33.626688Z

Period
91.50 min
Inclination
53.0366°
Eccentricity
0.0004897
Mean motion
15.73737716 rev/d
Perigee alt
344.9 km
Apogee alt
351.5 km
Semi-major
6,726.4 km
B*
3.8234e-4
RAAN
314.3848°
Arg perigee
24.4576°
Mean anomaly
335.6673°
Rev number
35,923

§ Raw data

STARLINK-13041 45376U 20019S   26255.89761142  .00054683  00000+0  38234-3 0  99932 45376  53.0366 314.3848 0004897  24.4576 335.6673 15.73737716359239

JSON: /api/v1/satellites/45376 · /tle

For live sub-satellite position, see the globe view (requires WebGL).

§ Visibility from observer

Set your observer location to see the next 7 days of passes ≥ 10°. The values pass through the URL so the page stays shareable.

No JS? Fill the form by hand. The geolocation button needs JavaScript.